Wetbulb
73.06 74.97 75.78 73.29 63.28 61.86 58.01 59.90 64.00 62.07 62.86 66.79 67.99 66.55 64.88 66.73 64.44 59.01 72.57 74.38 74.01 74.27 75.13 75.95 77.02 77.04 77.16 77.16 76.83 76.86 76.87 76.82 76.76 76.92 76.82 76.88 76.65 76.44 76.39 76.74 76.49 76.47 76.25 76.00 75.89 75.69 75.36 75.25 75.72
74.73 75.47 74.22 69.96 60.37 57.59 58.28 62.54 61.36 63.61 65.82 67.45 67.24 67.90 65.38 63.50 68.12 69.00 70.12 74.92 74.81 74.40 75.31 75.82 77.35 77.23 77.12 76.76 76.90 76.84 77.04 77.01 76.82 76.77 76.59 76.79 77.33 76.64 76.66 76.57 76.58 76.63 76.44 76.05 75.69 75.44 75.30 75.31 75.17
74.70 74.98 68.73 64.45 60.34 56.97 56.92 62.28 63.58 65.29 66.95 67.73 66.54 68.95 66.58 64.73 68.89 69.95 73.67 74.56 75.20 74.93 75.89 76.30 77.53 76.61 76.37 76.34 76.56 76.99 76.71 76.59 76.53 75.80 75.99 76.21 76.65 76.47 76.75 76.36 76.36 76.41 76.21 75.13 75.10 75.08 75.32 75.00 75.11
72.53 72.16 68.97 61.49 58.29 61.19 62.27 63.74 65.07 65.59 67.50 68.83 67.84 64.41 68.21 71.41 70.22 71.36 74.64 74.97 74.86 75.20 75.07 76.62 77.20 76.68 76.34 76.65 76.55 76.81 76.97 75.80 75.69 75.99 76.05 76.44 76.35 76.44 76.13 75.75 75.53 75.53 75.36 75.27 75.19 74.61 75.32 74.89 74.53
72.30 69.55 62.36 59.62 60.34 63.54 64.60 65.74 67.33 65.39 66.40 67.50 67.80 64.58 65.60 71.09 72.24 72.51 73.01 73.45 74.41 74.54 74.81 75.22 77.48 77.02 76.80 76.15 76.39 76.82 76.26 76.07 76.13 76.24 75.88 76.13 75.94 75.47 75.00 74.46 74.34 74.29 74.28 74.88 74.91 75.14 74.08 74.78 74.06
67.58 66.18 59.85 57.28 60.17 63.42 65.11 66.83 67.31 66.65 67.28 67.41 66.75 65.51 66.59 71.28 71.24 71.97 72.83 73.15 73.29 73.42 75.07 75.13 77.12 76.92 76.92 75.93 76.31 76.48 76.30 75.64 75.53 75.27 75.11 74.97 74.83 74.89 75.14 75.19 75.22 75.44 75.44 75.91 75.37 73.51 73.62 73.67 73.17
65.79 62.02 59.55 60.37 60.13 62.19 63.94 67.62 66.12 64.94 66.51 65.79 68.49 63.99 67.21 69.29 71.64 72.14 72.28 73.51 72.73 73.28 73.47 75.19 75.34 75.83 75.97 75.94 75.99 76.07 75.94 75.75 75.47 75.47 75.22 75.08 75.75 76.02 76.02 75.77 75.33 75.33 75.77 76.19 73.80 74.12 74.60 73.76 73.87
68.82 63.75 59.39 61.66 60.28 60.70 66.43 66.94 68.13 66.00 66.55 70.38 70.18 63.53 63.73 69.01 71.63 71.49 71.95 71.97 72.50 73.07 74.08 75.41 75.46 75.47 75.31 74.61 75.49 75.72 76.02 75.97 75.77 75.83 75.89 76.02 76.30 76.35 76.43 76.61 76.17 75.34 76.56 77.81 76.72 75.78 75.35 75.01 75.15
71.22 61.92 57.08 59.55 61.35 63.76 68.01 66.26 68.40 70.45 68.27 69.02 70.24 67.75 69.00 70.60 71.12 70.05 70.36 70.00 70.97 72.93 74.22 73.86 73.93 75.05 75.79 74.51 74.85 76.10 76.52 76.36 76.13 75.80 76.36 76.97 76.64 76.29 76.18 77.84 77.39 77.58 78.23 78.06 77.38 76.32 75.50 75.89 75.76
63.95 61.66 59.65 65.01 64.36 65.06 66.85 66.52 67.70 67.73 67.20 67.04 67.90 69.24 69.84 70.24 68.98 68.58 68.97 68.34 69.03 70.96 71.95 72.33 72.72 73.52 74.09 74.53 75.57 76.44 76.11 76.24 77.86 76.08 76.96 77.71 77.70 76.24 75.38 76.76 78.56 78.56 78.25 78.65 78.29 77.50 75.97 75.22 74.14
62.65 61.43 62.77 64.86 65.99 66.98 67.48 67.44 68.80 67.14 65.07 67.02 65.95 67.49 68.54 68.61 68.34 68.57 69.17 68.89 68.70 70.79 71.28 71.86 73.54 73.21 74.18 75.47 77.24 76.56 75.41 77.91 77.61 76.56 78.25 77.49 78.16 77.51 76.10 76.25 75.27 69.79 75.14 73.63 76.25 76.47 74.86 75.22 75.12
61.40 64.13 64.53 64.46 68.18 67.31 66.61 68.92 67.33 67.45 67.36 69.32 69.21 68.88 68.51 67.82 67.28 67.91 68.79 68.80 68.67 70.15 70.69 72.33 74.79 73.16 76.44 74.18 75.72 77.37 74.39 78.77 77.18 71.56 73.01 77.28 73.66 74.07 73.36 73.65 73.63 70.86 73.40 69.09 71.31 75.01 76.27 74.75 74.80
62.69 63.82 64.30 66.18 67.14 67.39 67.32 67.19 66.28 66.95 68.96 70.20 69.88 68.53 67.89 67.86 67.50 68.23 69.53 69.13 69.41 70.47 72.11 73.07 75.66 72.93 76.97 72.79 73.88 76.78 76.35 76.96 76.41 69.43 73.18 75.06 75.83 77.75 73.73 73.65 74.44 74.63 73.39 72.02 73.71 73.62 71.70 71.60 75.25
64.14 64.61 63.21 65.70 67.07 65.48 64.01 64.49 67.60 68.58 70.20 70.17 69.43 68.09 68.00 68.39 67.59 67.75 68.70 68.58 68.80 70.96 72.26 73.60 76.05 78.63 77.50 79.37 80.47 75.26 77.24 78.68 75.39 76.97 79.10 80.15 75.17 77.53 77.64 76.16 74.97 75.53 76.89 75.13 75.67 73.86 71.97 73.28 74.44
64.47 61.92 63.45 62.88 66.12 65.50 66.29 62.28 61.80 67.38 70.37 69.01 69.04 68.85 68.40 68.70 68.29 67.70 68.63 69.48 69.38 70.64 73.05 74.94 75.80 77.04 78.50 79.02 79.68 79.89 78.20 77.06 76.71 78.90 81.53 80.84 78.11 77.63 80.55 77.59 76.46 77.50 79.55 79.54 78.76 78.46 75.50 74.39 73.91
58.66 63.26 56.49 62.07 64.06 64.91 63.77 58.55 63.44 67.12 67.84 67.86 68.30 68.61 68.54 68.66 68.03 68.75 69.69 70.24 70.72 70.55 74.41 75.28 74.77 75.54 77.42 78.28 78.72 78.35 77.25 78.28 77.07 77.59 79.43 80.66 80.23 78.65 80.16 77.25 76.93 77.93 77.10 76.04 75.93 76.00 74.37 73.40 75.31
58.63 55.20 57.85 57.75 63.74 61.95 61.89 57.16 60.27 65.46 67.53 67.73 68.05 68.21 68.99 68.40 69.02 70.29 69.42 69.14 70.38 72.27 74.78 75.50 75.90 76.15 76.91 79.31 77.84 79.67 81.28 77.74 78.58 77.15 77.75 80.70 80.08 80.24 79.60 77.79 79.30 78.23 74.69 74.61 76.07 76.09 76.07 75.58 74.45
54.48 56.14 59.06 54.88 58.43 60.39 58.55 58.05 57.85 63.94 67.10 66.96 68.03 69.07 69.12 68.44 68.35 70.28 70.36 69.12 70.22 72.72 75.43 76.41 76.67 77.55 78.37 78.13 80.76 79.83 79.32 78.46 78.81 76.74 77.79 78.03 78.87 79.66 79.61 78.25 79.55 78.69 74.80 74.25 76.10 77.30 77.05 76.59 73.37
57.33 57.36 57.62 58.81 60.28 58.48 57.44 58.22 60.05 64.20 66.78 66.95 67.16 68.35 69.17 68.85 69.78 70.91 70.94 69.11 69.73 72.11 74.65 76.60 77.25 78.92 77.92 77.87 75.97 75.72 75.15 78.01 77.34 78.17 78.97 79.77 80.02 80.20 79.57 78.30 75.66 77.14 75.65 76.90 76.81 76.25 74.31 74.33 76.44
57.37 56.22 57.84 60.10 60.98 59.86 58.07 57.90 61.49 62.47 65.23 67.01 67.81 68.42 68.31 69.24 69.43 70.68 71.73 69.50 69.88 71.84 74.46 76.81 77.73 77.95 78.79 77.24 77.67 77.07 77.41 77.82 77.56 77.65 79.77 79.42 79.92 78.12 79.96 79.94 78.96 78.86 78.33 78.31 75.20 74.73 73.78 71.47 73.64
56.57 55.66 57.12 56.50 59.74 59.87 59.02 57.18 58.75 64.27 65.86 67.49 68.36 69.88 69.97 69.42 69.09 70.32 71.27 70.54 70.41 71.17 73.80 75.91 77.47 77.58 78.06 79.56 78.85 77.33 78.17 79.31 76.43 77.12 77.61 78.81 80.86 80.68 80.58 80.64 80.22 79.03 77.15 76.24 75.76 74.76 72.01 70.13 70.19
53.81 58.49 57.35 58.33 55.82 52.68 57.93 50.36 59.98 63.25 63.37 65.20 67.28 68.61 69.51 70.11 70.92 71.33 71.34 71.67 70.75 71.33 73.60 75.77 76.93 77.73 77.61 79.66 78.64 78.30 76.80 75.51 77.60 76.22 77.71 77.94 79.92 80.96 80.34 79.02 80.98 79.60 78.48 78.15 76.20 74.35 74.45 72.23 68.84
55.15 58.33 57.27 56.58 55.65 55.25 55.15 52.79 55.96 61.19 61.08 62.89 65.15 68.26 69.39 70.68 70.91 70.47 71.19 72.41 72.71 71.39 71.86 74.71 76.13 78.08 77.03 78.64 80.59 78.18 79.74 77.54 77.34 76.80 78.87 78.35 80.85 80.42 79.38 81.19 81.27 78.78 78.50 78.82 77.97 75.67 74.60 72.71 71.76
58.54 56.76 56.55 57.06 55.24 49.75 53.88 53.65 53.66 58.53 60.85 63.60 65.59 67.64 69.14 70.01 71.25 71.96 72.73 73.19 72.97 72.41 71.91 73.62 75.19 77.73 77.80 77.97 78.96 79.21 77.73 77.84 76.93 76.41 75.76 76.99 77.33 79.32 80.99 80.57 81.48 80.76 80.16 79.54 77.59 76.98 75.37 72.54 70.88
56.39 54.27 48.58 48.40 48.75 47.70 54.71 52.95 55.71 59.31 61.01 62.82 65.20 66.98 68.70 70.79 71.34 71.90 71.74 72.15 72.63 72.18 71.41 72.45 75.19 76.02 77.16 77.11 77.73 78.90 78.90 80.39 79.26 78.22 76.29 76.06 75.93 76.53 79.72 81.57 81.83 80.94 81.08 80.48 79.35 77.86 76.36 75.21 72.67
54.69 53.99 49.64 44.61 46.26 48.66 54.50 50.54 54.82 61.20 62.54 64.83 66.27 67.02 68.62 68.88 70.68 71.57 72.16 72.65 72.76 73.05 72.02 72.35 75.13 75.42 76.55 77.28 76.97 78.49 79.50 78.02 78.29 79.53 77.82 78.52 77.31 78.31 80.15 80.61 81.02 81.39 81.24 80.13 80.46 78.46 76.50 75.95 74.57
53.28 52.57 55.44 51.42 52.89 49.55 51.68 54.64 58.12 60.88 60.76 61.70 63.94 66.05 65.76 67.58 68.77 71.27 72.44 72.83 73.09 73.02 73.56 72.49 75.30 75.94 76.78 76.74 76.94 77.34 78.33 78.58 77.83 79.69 80.59 78.36 80.60 79.13 79.75 80.00 80.79 81.07 80.93 80.50 80.52 78.81 77.86 76.84 76.23
53.89 56.49 50.71 52.07 46.17 44.57 49.73 51.60 51.20 57.41 59.22 60.76 60.93 62.20 64.71 65.59 65.53 68.48 72.28 73.02 73.47 73.47 74.05 74.47 75.65 75.98 76.57 77.04 77.35 77.48 77.07 77.99 79.27 79.91 79.79 78.26 80.72 81.41 79.35 79.24 79.82 80.20 80.88 80.59 80.56 79.26 79.38 77.83 77.40
51.63 51.96 53.17 53.00 52.14 47.40 46.57 50.23 58.75 58.19 58.05 60.32 61.45 63.00 63.85 65.14 66.49 69.77 71.56 73.56 73.66 73.73 73.47 73.88 74.78 75.82 76.46 76.90 77.44 77.61 77.59 77.44 77.69 78.45 80.25 77.78 80.28 80.93 80.79 79.97 80.37 80.03 80.03 80.38 80.42 80.10 79.22 78.14 78.08
52.81 52.61 53.21 49.93 49.40 51.21 51.18 50.93 59.40 59.47 60.27 61.70 61.63 63.98 63.64 63.99 65.38 70.10 71.94 73.45 73.60 73.43 73.19 73.37 73.63 75.66 76.00 76.70 77.00 77.11 77.73 77.31 76.39 77.35 79.02 79.91 79.07 81.61 79.86 80.74 80.14 80.39 79.83 80.09 79.84 78.83 77.56 77.41 77.35
MSLP
1007.92 1007.79 1007.75 1007.68 1007.93 1006.43 1004.27 1003.06 1001.46 1000.86 1000.72 1001.01 1001.51 1002.55 1004.35 1005.07 1005.41 1007.99 1008.88 1009.30 1010.26 1011.28 1012.27 1012.69 1013.05 1013.32 1013.42 1013.63 1013.78 1013.90 1013.96 1014.12 1014.28 1014.39 1014.49 1014.61 1014.76 1015.05 1015.14 1015.09 1015.25 1015.32 1015.36 1015.46 1015.48 1015.54 1015.50 1015.44 1015.40
1006.72 1007.27 1007.75 1007.36 1006.72 1004.88 1003.17 1002.15 1001.15 1001.02 1001.48 1001.93 1002.39 1003.20 1004.65 1005.86 1006.68 1007.63 1008.58 1009.53 1010.33 1011.12 1011.84 1012.71 1013.31 1013.48 1013.61 1013.79 1013.87 1014.03 1014.16 1014.35 1014.50 1014.64 1014.82 1014.84 1014.91 1015.08 1015.22 1015.24 1015.29 1015.38 1015.46 1015.49 1015.53 1015.57 1015.63 1015.62 1015.58
1007.06 1006.85 1007.47 1006.56 1005.63 1003.45 1002.26 1001.38 1001.10 1001.56 1001.95 1002.01 1003.20 1004.15 1005.18 1006.56 1007.02 1007.62 1008.88 1009.87 1010.39 1011.24 1012.15 1013.03 1013.33 1013.65 1013.78 1013.89 1014.08 1014.23 1014.46 1014.64 1014.74 1014.87 1014.94 1014.97 1015.04 1015.29 1015.21 1015.30 1015.39 1015.44 1015.53 1015.49 1015.50 1015.59 1015.64 1015.75 1015.74
1006.79 1006.83 1006.80 1006.45 1004.64 1002.53 1001.54 1001.16 1001.46 1001.58 1001.99 1003.09 1004.02 1005.26 1006.16 1006.82 1007.61 1008.29 1009.11 1009.93 1010.80 1011.29 1012.41 1013.23 1013.52 1013.71 1013.86 1014.06 1014.25 1014.43 1014.53 1014.69 1014.87 1014.99 1015.03 1015.09 1015.20 1015.28 1015.30 1015.37 1015.42 1015.41 1015.39 1015.38 1015.43 1015.55 1015.65 1015.86 1015.89
1005.91 1006.45 1006.58 1005.43 1003.16 1001.68 1001.30 1001.27 1001.49 1002.10 1003.02 1003.59 1004.69 1006.13 1006.78 1007.06 1007.94 1008.50 1008.87 1009.65 1010.89 1011.72 1012.57 1013.23 1013.61 1013.85 1014.06 1014.28 1014.42 1014.53 1014.63 1014.76 1014.88 1014.90 1014.99 1015.14 1015.30 1015.32 1015.30 1015.25 1015.25 1015.23 1015.26 1015.41 1015.48 1015.63 1015.83 1015.90 1015.90
1006.34 1007.60 1006.31 1004.88 1002.60 1001.78 1001.30 1001.27 1001.80 1002.70 1003.24 1004.19 1005.19 1006.50 1007.23 1007.83 1008.15 1008.54 1008.81 1009.25 1010.12 1011.43 1012.56 1013.19 1013.77 1014.03 1014.25 1014.34 1014.48 1014.63 1014.66 1014.69 1014.76 1014.71 1014.89 1015.01 1015.02 1015.06 1015.03 1015.07 1015.07 1015.28 1015.38 1015.56 1015.73 1015.86 1015.92 1015.92 1015.97
1005.27 1006.81 1006.10 1004.30 1003.07 1002.02 1001.70 1001.44 1002.09 1003.45 1003.68 1004.12 1005.09 1006.38 1007.55 1007.88 1008.25 1008.50 1009.06 1009.41 1010.46 1011.39 1012.51 1013.20 1013.72 1014.07 1014.34 1014.40 1014.59 1014.73 1014.63 1014.58 1014.62 1014.51 1014.69 1014.71 1014.66 1014.77 1015.03 1015.36 1015.47 1015.61 1015.53 1015.61 1015.77 1015.88 1015.99 1016.04 1015.95
1003.47 1005.61 1005.93 1004.08 1003.43 1002.68 1002.33 1002.82 1002.83 1003.34 1003.59 1003.67 1004.36 1005.92 1007.14 1007.88 1008.27 1008.96 1009.15 1009.83 1010.64 1011.36 1012.06 1012.69 1013.48 1013.69 1014.02 1014.50 1014.64 1014.59 1014.35 1014.32 1014.24 1014.27 1014.35 1014.54 1014.80 1015.11 1015.43 1015.88 1016.14 1016.19 1016.10 1016.01 1015.97 1015.89 1015.98 1016.27 1016.35
1003.02 1003.28 1005.36 1004.86 1003.60 1002.89 1002.63 1002.67 1003.36 1003.59 1003.27 1003.71 1004.16 1005.55 1006.78 1007.85 1008.60 1009.11 1009.58 1010.43 1011.03 1011.08 1011.69 1012.38 1012.96 1013.34 1013.71 1014.23 1014.40 1014.34 1014.09 1014.46 1015.23 1014.98 1014.51 1014.66 1015.04 1015.35 1015.70 1015.76 1015.88 1016.21 1016.42 1016.29 1016.53 1016.51 1016.34 1016.33 1016.50
1004.23 1004.17 1003.84 1004.08 1004.25 1003.35 1003.00 1003.10 1003.00 1003.39 1003.53 1004.15 1004.47 1005.74 1007.09 1007.87 1008.57 1009.07 1009.70 1010.44 1010.89 1011.09 1011.40 1012.16 1012.61 1012.84 1013.33 1013.41 1014.00 1013.93 1013.94 1015.07 1014.57 1015.45 1014.91 1014.59 1014.76 1014.87 1014.57 1014.87 1015.48 1015.92 1016.31 1016.87 1016.81 1017.10 1017.13 1016.80 1016.74
1004.28 1003.38 1003.08 1003.03 1003.37 1003.39 1002.49 1002.67 1003.04 1003.12 1003.69 1004.13 1004.81 1005.92 1007.07 1007.75 1008.33 1008.99 1009.31 1010.08 1010.70 1011.09 1011.33 1011.91 1012.26 1012.84 1013.14 1013.44 1013.50 1013.98 1013.72 1013.74 1014.98 1015.11 1014.61 1013.82 1014.21 1014.39 1014.42 1014.52 1015.93 1015.74 1016.85 1017.05 1017.09 1017.22 1017.18 1016.01 1016.55
1001.71 1001.70 1001.98 1002.44 1002.07 1003.28 1002.86 1002.99 1003.32 1003.50 1003.83 1004.65 1005.20 1006.11 1006.88 1007.48 1007.85 1008.50 1008.97 1009.76 1010.44 1010.84 1011.07 1011.63 1012.49 1013.10 1013.11 1013.40 1013.71 1013.63 1013.52 1013.76 1013.70 1015.02 1014.59 1014.88 1014.61 1014.65 1015.98 1014.19 1014.31 1014.77 1016.09 1016.06 1016.88 1016.66 1016.55 1016.39 1016.17
999.61 1000.86 1001.50 1001.58 1002.40 1003.10 1003.81 1003.30 1003.92 1003.89 1004.46 1004.96 1005.60 1006.31 1006.87 1007.25 1007.68 1008.16 1008.61 1009.44 1010.24 1010.78 1011.19 1011.84 1012.76 1013.05 1013.41 1013.65 1013.76 1014.14 1013.78 1014.12 1014.20 1014.82 1014.78 1014.97 1015.00 1015.05 1015.55 1014.32 1013.65 1014.85 1016.36 1017.04 1017.11 1016.68 1015.75 1015.51 1015.78
999.12 1000.41 1001.27 1001.58 1002.78 1003.75 1004.21 1004.69 1003.51 1003.84 1004.35 1004.81 1005.58 1006.19 1006.66 1007.00 1007.45 1007.96 1008.56 1009.21 1010.11 1010.79 1011.41 1012.23 1012.77 1012.95 1013.02 1013.56 1013.54 1014.19 1013.67 1013.47 1013.90 1014.34 1014.58 1014.50 1014.74 1014.75 1014.93 1015.27 1015.45 1015.14 1015.60 1016.66 1015.65 1015.78 1015.84 1016.60 1015.98
999.47 1001.20 1001.87 1002.26 1002.67 1003.58 1004.96 1005.69 1004.46 1003.34 1003.72 1004.76 1005.57 1006.14 1006.35 1006.69 1007.22 1007.86 1008.45 1009.14 1009.97 1010.69 1011.39 1012.42 1012.84 1013.12 1013.38 1013.43 1013.53 1013.47 1013.57 1013.45 1014.22 1014.55 1014.48 1014.50 1014.36 1015.02 1014.82 1014.81 1015.31 1015.26 1015.24 1015.08 1014.91 1014.67 1015.39 1015.95 1015.41
999.19 1000.87 1002.80 1003.26 1004.65 1005.11 1004.89 1006.97 1006.45 1004.92 1004.02 1004.79 1005.48 1005.88 1006.17 1006.50 1007.01 1007.71 1008.43 1009.12 1009.92 1010.59 1011.52 1012.41 1012.47 1013.11 1013.50 1013.59 1013.60 1013.51 1013.21 1013.14 1013.75 1014.26 1014.47 1014.60 1014.53 1014.28 1014.24 1014.87 1015.31 1015.09 1014.99 1015.01 1015.04 1015.01 1015.03 1015.38 1015.45
998.76 999.52 1002.39 1004.32 1005.76 1007.88 1008.17 1008.76 1006.45 1005.09 1004.28 1004.39 1005.18 1005.84 1005.94 1006.27 1006.82 1007.61 1008.38 1009.15 1009.80 1010.61 1011.57 1012.18 1012.42 1012.98 1013.49 1013.51 1013.39 1013.16 1013.14 1013.11 1013.20 1013.68 1014.20 1014.47 1014.32 1014.35 1014.57 1014.57 1014.70 1014.79 1015.04 1015.40 1015.55 1015.56 1015.48 1015.45 1015.57
997.93 999.12 1001.80 1003.99 1006.69 1008.46 1008.79 1008.36 1006.89 1005.07 1004.09 1004.12 1004.29 1005.05 1005.47 1005.93 1006.51 1007.39 1008.09 1009.01 1009.83 1010.72 1011.61 1012.15 1012.46 1012.99 1013.46 1013.56 1013.51 1013.25 1013.34 1013.22 1012.98 1013.64 1014.03 1014.40 1014.35 1014.40 1014.46 1014.37 1014.32 1014.66 1015.47 1016.05 1016.10 1015.96 1015.88 1015.66 1015.74
998.07 999.32 1001.14 1003.56 1005.00 1006.70 1008.81 1009.04 1008.12 1005.77 1003.26 1003.44 1003.80 1004.09 1004.60 1005.26 1006.00 1007.01 1007.74 1008.78 1009.72 1010.69 1011.56 1012.04 1012.52 1013.05 1013.50 1013.57 1013.68 1013.71 1013.44 1013.15 1013.62 1013.96 1014.36 1014.52 1014.56 1014.52 1014.42 1014.46 1014.87 1014.95 1015.66 1016.10 1016.24 1016.15 1015.95 1015.86 1015.89
997.73 998.05 999.82 1002.08 1002.79 1004.80 1006.60 1007.67 1005.17 1003.17 1002.79 1001.37 1002.20 1003.38 1003.83 1004.53 1005.45 1006.46 1007.35 1008.24 1009.31 1010.36 1011.34 1011.96 1012.50 1013.04 1013.36 1013.45 1013.46 1013.43 1013.27 1013.34 1013.62 1014.11 1014.49 1014.82 1014.86 1015.04 1014.83 1015.06 1015.30 1015.61 1015.99 1016.30 1016.49 1016.57 1016.41 1016.35 1016.54
996.98 997.10 998.58 1000.45 1001.16 1002.06 1003.42 1005.17 1004.80 1002.24 1000.92 1000.40 1000.82 1002.00 1003.18 1003.73 1004.65 1005.79 1006.81 1007.70 1008.72 1009.77 1010.74 1011.59 1012.33 1012.98 1013.23 1013.14 1013.38 1013.27 1013.21 1013.50 1014.10 1014.59 1014.93 1015.06 1014.97 1015.06 1015.21 1015.28 1015.49 1015.81 1016.23 1016.55 1016.69 1016.84 1016.83 1016.86 1016.99
996.39 996.33 997.04 998.36 999.57 999.22 999.36 1000.32 1001.01 1000.39 999.60 999.28 999.54 1000.58 1001.98 1002.88 1003.95 1005.11 1006.16 1007.04 1007.89 1009.07 1010.32 1011.14 1011.89 1012.73 1013.05 1013.17 1013.27 1013.30 1013.32 1013.69 1013.93 1014.29 1014.81 1015.12 1015.14 1015.02 1015.21 1015.45 1015.67 1015.97 1016.19 1016.66 1016.92 1017.04 1017.24 1017.10 1017.17
996.29 996.14 996.73 997.20 997.78 997.70 998.20 998.31 998.59 998.76 998.93 998.79 998.47 999.23 1000.54 1001.75 1003.01 1004.20 1005.36 1006.57 1007.43 1008.55 1009.71 1010.77 1011.55 1012.29 1012.71 1013.00 1013.08 1013.29 1013.41 1013.50 1013.75 1014.25 1014.77 1015.15 1015.24 1015.13 1015.04 1015.40 1015.65 1016.14 1016.60 1016.90 1017.08 1017.20 1017.27 1017.19 1017.26
996.48 996.38 996.71 997.70 997.63 997.19 997.10 997.22 997.87 996.62 997.01 997.10 997.65 998.37 999.23 1000.52 1001.93 1003.18 1004.58 1005.95 1006.88 1007.79 1009.02 1010.24 1011.31 1011.98 1012.54 1012.79 1013.09 1013.35 1013.53 1013.63 1013.68 1014.26 1014.64 1015.05 1015.31 1015.29 1015.14 1015.51 1015.58 1016.02 1016.47 1016.88 1017.17 1017.43 1017.55 1017.59 1017.51
996.44 996.43 996.71 997.88 997.24 996.50 996.41 996.29 996.04 996.72 996.44 995.75 996.39 997.42 998.23 999.36 1000.53 1002.02 1003.48 1004.88 1006.15 1007.02 1008.14 1009.50 1010.82 1011.59 1012.33 1012.60 1012.92 1013.30 1013.31 1013.65 1013.97 1014.03 1014.34 1014.44 1014.72 1014.98 1015.30 1015.61 1015.75 1016.03 1016.24 1016.53 1016.93 1017.34 1017.55 1017.64 1017.64
995.68 996.13 996.32 997.00 996.89 996.06 995.91 995.30 994.92 995.46 995.88 995.62 996.52 996.86 997.52 998.62 999.36 1000.60 1002.08 1003.62 1005.27 1006.40 1007.37 1008.58 1010.05 1011.05 1011.87 1012.25 1012.66 1013.14 1013.21 1013.53 1013.79 1013.67 1013.93 1013.94 1013.96 1014.20 1014.98 1015.40 1015.51 1015.62 1015.86 1016.25 1016.61 1017.13 1017.29 1017.58 1017.69
995.39 995.39 996.46 996.68 996.51 995.77 995.22 994.90 994.57 995.05 995.66 995.30 995.73 996.70 997.77 997.75 997.89 998.97 1000.34 1002.10 1003.78 1005.34 1006.61 1007.68 1009.09 1010.20 1011.11 1011.79 1012.29 1012.88 1013.20 1013.40 1013.41 1013.67 1013.88 1013.99 1013.83 1014.31 1014.74 1015.06 1015.34 1015.38 1015.63 1015.99 1016.56 1016.89 1017.04 1017.30 1017.43
995.10 996.20 996.14 996.18 996.22 996.32 995.51 995.81 995.57 995.88 995.09 995.08 995.26 995.90 996.57 996.84 997.31 998.09 999.06 1000.64 1002.43 1004.06 1005.62 1006.86 1008.14 1009.25 1010.17 1011.16 1011.69 1012.28 1013.03 1013.24 1013.44 1013.53 1013.77 1013.91 1013.75 1014.03 1014.41 1014.78 1015.10 1015.34 1015.64 1015.95 1016.29 1016.58 1016.59 1016.88 1016.90
994.85 995.02 995.55 995.81 995.95 995.90 995.58 995.04 995.69 996.49 996.54 995.19 995.45 996.00 996.90 997.45 997.81 997.98 997.99 999.71 1001.44 1003.04 1004.61 1006.03 1007.14 1008.45 1009.44 1010.26 1010.84 1011.59 1012.27 1012.91 1013.21 1013.40 1013.41 1013.62 1013.89 1013.93 1014.51 1014.70 1014.91 1015.09 1015.40 1015.70 1015.95 1016.12 1016.39 1016.49 1016.51
994.66 994.76 995.36 995.86 996.49 995.55 995.46 994.62 995.07 996.16 996.42 995.12 995.42 996.18 997.41 998.18 998.50 998.61 998.43 999.12 1000.84 1002.21 1003.69 1005.09 1006.30 1007.48 1008.56 1009.48 1010.13 1010.84 1011.59 1012.25 1012.70 1013.01 1013.12 1013.27 1013.58 1013.86 1014.13 1014.53 1014.78 1014.86 1015.06 1015.31 1015.51 1015.74 1015.75 1015.93 1016.00
Wind_Speed
11 11 7 2 2 2 4 5 5 15 14 17 20 16 19 16 9 13 14 19 19 17 12 11 9 12 11 12 12 12 12 12 12 12 13 13 14 13 13 12 14 12 12 11 11 10 10 9 9
13 8 2 3 3 6 8 11 13 15 16 14 14 19 20 19 17 19 14 21 18 15 12 12 12 12 12 12 11 12 11 11 12 12 13 12 13 13 14 12 12 11 11 10 9 9 9 8 7
7 9 2 0 4 9 10 13 15 18 14 15 8 14 10 17 16 17 20 19 17 15 14 12 12 11 12 12 11 11 11 12 12 12 12 12 12 12 12 11 10 9 9 8 8 8 9 8 7
7 2 2 2 3 17 14 16 19 14 14 20 16 14 17 17 16 19 26 18 16 14 16 12 12 12 13 13 11 11 10 11 11 11 11 11 11 10 9 8 8 8 7 8 8 7 8 9 8
3 2 3 5 15 14 14 18 15 14 14 10 21 18 14 22 19 17 16 16 18 16 15 12 12 12 12 12 11 10 10 9 9 9 8 9 9 8 7 6 6 7 6 7 8 10 8 9 7
3 3 3 2 16 14 17 16 17 13 12 19 22 19 14 17 18 16 14 14 18 17 16 12 13 12 12 11 10 9 9 7 7 6 7 7 7 7 6 5 4 4 5 6 9 8 8 8 6
7 2 6 3 14 14 13 11 17 10 10 16 19 18 14 16 15 15 12 17 16 17 14 11 11 10 11 10 8 8 7 7 7 6 6 7 7 7 6 5 3 4 5 7 5 6 7 9 10
7 9 7 2 13 12 14 6 10 10 9 17 19 10 19 17 16 15 11 13 12 13 15 13 10 10 9 9 8 8 8 8 9 9 9 8 8 7 6 4 4 2 4 4 8 11 12 11 12
9 4 4 7 4 12 14 13 10 9 7 9 9 23 21 19 18 15 14 14 9 8 13 12 12 9 9 8 8 8 10 9 5 6 9 7 5 5 9 7 7 5 4 6 7 10 12 14 15
5 1 2 11 3 6 7 6 16 13 14 11 16 22 22 19 18 16 14 13 13 8 13 12 12 11 9 8 8 7 7 5 4 6 5 5 6 8 10 10 9 7 6 2 9 8 11 11 5
6 6 8 6 6 21 16 11 11 11 3 15 24 24 22 20 17 16 15 14 13 13 10 12 11 7 9 5 4 4 3 4 5 10 7 3 3 5 3 3 9 3 5 4 1 7 5 6 3
7 6 7 5 7 10 13 13 9 12 12 2 20 22 21 20 18 16 16 14 14 13 13 13 11 5 6 6 2 3 3 1 1 15 16 7 1 9 4 1 17 5 9 6 2 5 5 10 10
3 14 5 11 3 5 14 14 7 11 14 5 20 20 20 18 17 15 15 15 13 11 10 13 11 6 3 3 7 2 3 4 9 10 8 3 1 1 6 4 2 12 4 2 7 6 3 5 2
10 11 2 11 13 12 5 12 20 20 20 17 19 20 19 18 17 15 15 14 14 11 11 13 8 5 7 2 2 2 4 3 4 5 3 4 5 1 1 7 5 5 6 11 6 9 6 3 7
14 9 12 15 17 13 15 3 11 11 20 18 18 17 18 17 17 15 15 13 14 11 13 11 10 8 8 2 3 3 4 6 8 3 4 3 6 1 4 5 4 4 4 3 3 1 8 5 6
15 11 6 16 17 10 17 7 12 18 18 18 17 15 17 18 18 16 14 13 14 13 14 12 12 12 9 6 6 4 5 5 8 7 5 2 4 5 4 3 4 1 3 4 4 3 3 4 4
15 11 13 1 16 5 13 5 16 19 8 17 17 13 14 17 16 14 16 14 15 12 14 10 8 11 8 6 5 4 2 1 5 7 7 3 3 6 5 4 2 4 5 5 4 2 2 1 3
9 2 10 11 1 12 13 4 20 22 15 14 17 20 16 17 18 16 17 15 15 14 13 9 9 9 8 5 4 2 2 4 3 6 7 4 4 5 5 3 3 5 6 5 3 5 3 1 2
16 14 9 13 17 11 3 15 16 20 17 19 16 16 17 19 18 18 17 15 15 15 14 10 9 9 7 5 5 4 6 3 7 7 7 3 2 2 3 2 6 6 5 5 3 3 4 5 5
19 13 15 10 18 15 23 23 27 29 27 24 23 18 19 20 19 18 16 17 17 16 14 11 8 9 6 6 4 5 3 3 7 6 4 4 2 6 6 6 5 5 3 5 4 4 3 2 5
21 19 14 13 15 22 23 23 27 19 21 22 22 22 20 20 21 19 18 18 18 18 17 14 11 12 8 7 4 1 0 4 8 6 4 4 2 5 5 4 5 4 4 4 2 5 4 2 2
21 17 11 19 20 8 11 8 22 22 16 16 20 22 20 20 20 19 19 18 19 18 17 16 13 14 11 8 5 5 4 5 4 6 6 5 5 2 5 5 5 5 4 5 4 3 3 1 3
21 19 13 16 10 12 10 9 5 14 13 18 15 21 22 21 21 21 22 18 17 18 17 15 14 14 12 9 5 5 4 4 5 7 9 6 4 5 5 5 5 6 5 4 4 4 5 2 2
21 19 14 11 16 13 13 13 14 19 23 23 20 18 20 21 21 21 20 19 17 17 18 16 15 13 12 11 8 7 7 5 4 8 6 6 6 3 3 4 3 7 5 5 4 4 4 3 3
24 18 9 13 13 12 15 13 7 11 16 12 20 20 18 21 21 20 22 20 18 18 19 17 18 14 14 13 10 8 8 5 5 9 6 7 8 7 6 5 3 4 6 5 5 4 3 2 2
25 22 14 14 13 14 15 15 9 20 9 7 17 11 16 18 21 22 23 21 20 18 19 20 20 17 16 14 12 9 7 4 4 4 4 4 4 6 8 6 5 5 6 6 5 4 4 4 3
25 21 21 23 20 13 13 18 17 17 13 12 18 19 19 29 20 24 25 24 23 20 19 20 21 19 17 15 12 11 8 8 7 7 4 5 3 9 9 8 6 5 6 7 5 4 4 5 4
30 14 22 17 21 13 18 5 9 10 14 14 11 9 4 6 2 8 22 24 22 22 18 19 21 21 19 17 14 12 12 11 7 6 6 7 4 2 8 7 7 6 6 6 6 6 7 5 4
21 23 22 15 17 15 16 11 22 7 15 13 13 14 10 9 2 7 19 22 22 21 20 19 18 21 19 17 15 14 13 13 11 8 7 8 5 5 6 6 6 6 6 6 6 4 5 6 6
29 23 23 12 20 14 16 14 13 15 18 12 13 11 13 11 12 6 7 20 21 20 20 19 18 19 18 17 14 15 14 14 14 12 9 8 8 5 7 6 6 5 7 7 7 7 6 7 7
Wind_Direction
172 188 207 237 221 218 164 119 138 116 91 69 59 72 71 43 51 108 156 116 131 114 125 112 114 106 96 94 95 95 99 96 94 97 95 93 95 97 101 105 97 102 91 90 86 83 79 76 79
178 147 228 261 241 146 120 139 128 98 91 88 81 78 67 74 100 126 118 103 117 124 124 108 114 108 106 102 108 105 101 99 96 90 92 94 93 97 98 101 99 95 96 96 94 95 92 87 85
268 187 269 77 272 126 126 131 108 100 143 104 102 71 76 117 116 113 111 115 112 121 107 112 117 110 109 103 101 102 99 93 94 94 95 95 96 99 97 100 102 98 89 93 99 104 99 103 104
215 184 264 265 143 134 131 122 118 135 91 81 94 77 104 101 108 124 121 126 128 126 106 116 112 116 113 110 109 98 105 102 99 100 105 106 104 102 107 112 114 112 117 119 119 116 110 112 112
203 213 235 244 153 124 130 130 118 95 85 97 106 105 101 110 124 138 132 132 136 113 117 118 112 118 118 112 112 106 106 103 105 110 121 120 120 124 128 132 137 144 149 134 127 108 107 115 116
75 32 289 240 116 126 119 145 99 100 94 93 101 118 103 115 140 140 141 145 121 117 112 128 117 120 117 117 119 115 117 124 125 142 138 134 141 146 154 158 170 156 155 138 133 127 129 128 132
148 86 287 137 106 123 117 113 109 109 112 115 126 122 127 148 140 126 148 110 116 117 128 140 131 127 126 129 130 129 141 146 157 178 166 172 176 176 174 171 173 147 161 153 160 129 130 129 150
246 137 323 184 139 143 99 100 107 132 137 123 128 136 149 140 141 134 130 105 115 143 144 131 137 139 152 155 154 165 185 180 190 194 196 197 198 196 182 157 153 139 147 163 148 134 128 127 140
340 333 80 303 192 127 137 129 120 151 145 127 100 134 141 151 132 149 127 124 137 162 133 130 146 160 148 137 174 191 207 207 225 245 217 203 209 185 146 116 128 144 162 162 135 135 138 147 158
35 294 201 148 251 198 132 191 156 173 137 117 133 128 135 151 154 146 151 145 151 157 140 138 157 145 159 168 154 200 198 179 178 9 274 205 198 205 139 157 155 120 133 258 135 148 145 167 178
169 248 173 147 246 224 163 163 170 130 144 141 132 140 151 155 159 155 160 155 151 158 165 150 136 128 172 111 168 189 239 172 146 172 221 230 131 143 109 117 92 354 30 358 225 163 182 229 198
164 150 199 147 156 144 166 151 156 182 145 145 140 147 157 163 161 166 149 163 153 155 146 147 112 98 194 135 226 109 146 70 105 42 336 0 83 90 130 281 142 108 156 222 266 208 218 214 231
156 151 185 166 162 64 360 169 136 150 123 198 144 156 162 168 161 166 147 152 149 157 143 113 118 166 185 35 182 158 244 164 116 125 249 252 90 272 102 270 21 139 154 208 186 138 318 319 73
122 115 129 173 147 140 122 256 163 160 158 161 153 165 168 171 164 162 152 156 147 151 137 121 151 128 93 121 117 224 170 151 114 111 146 64 209 154 298 183 188 71 131 161 172 152 203 90 285
115 100 297 260 164 166 187 296 5 126 136 142 162 169 172 169 164 165 156 154 153 150 141 146 136 150 111 138 281 271 159 143 99 106 75 18 33 317 329 78 58 134 156 122 117 282 171 195 185
256 148 115 302 35 350 84 15 300 299 144 153 166 172 175 168 168 166 159 152 146 157 131 165 163 141 148 183 232 250 219 148 139 146 144 133 51 332 307 86 94 352 78 110 43 23 358 113 101
249 215 147 91 358 111 331 191 319 288 205 160 165 171 184 170 168 163 164 167 150 145 139 187 147 146 161 172 237 223 339 288 135 135 118 195 38 27 353 93 105 56 68 37 34 350 71 344 148
257 141 104 120 277 74 291 248 187 250 178 167 164 171 185 175 174 167 168 171 152 144 147 194 143 138 141 188 241 111 248 258 118 98 85 344 41 26 14 45 27 64 70 62 21 8 348 324 45
282 164 179 173 192 127 230 272 283 274 194 170 173 176 178 177 176 169 172 167 156 154 157 180 158 144 142 187 188 172 225 168 106 86 87 87 89 8 303 162 53 58 69 47 46 326 3 27 37
252 252 152 177 235 140 167 220 210 226 237 171 170 177 184 175 176 170 173 167 165 159 164 165 161 154 177 201 217 177 195 191 103 104 118 108 84 4 53 8 93 73 114 81 38 5 339 77 41
256 253 139 177 230 220 170 192 221 221 234 165 172 170 184 182 176 171 179 173 170 165 168 170 170 164 204 206 228 58 79 94 107 121 127 145 159 158 108 71 54 20 138 79 48 14 51 37 63
251 252 248 191 185 214 214 215 189 197 187 194 173 167 180 183 180 175 178 181 177 167 171 172 173 166 203 233 195 189 180 150 145 167 144 145 183 184 122 117 103 34 82 132 135 36 345 35 153
251 257 226 253 262 277 178 256 187 188 177 196 206 171 177 181 183 178 181 183 186 170 172 176 173 170 192 210 216 185 255 175 177 125 142 145 153 228 128 115 131 102 102 92 83 66 22 23 358
252 253 253 284 283 247 248 257 168 184 194 184 182 187 175 174 179 179 178 177 189 175 169 175 177 178 191 201 197 203 212 263 171 142 145 157 172 206 139 118 108 103 134 130 114 117 73 50 32
230 241 221 235 244 243 231 234 162 98 291 206 169 185 177 171 177 178 176 178 184 186 171 175 175 183 191 193 193 213 212 221 277 149 174 190 182 176 164 150 153 126 143 125 142 97 146 92 102
223 221 233 221 242 238 223 246 207 163 160 133 157 172 173 187 179 179 179 177 179 191 177 177 172 182 185 185 196 199 209 228 215 189 195 230 182 149 151 168 166 162 152 142 140 176 155 133 196
238 218 231 245 231 255 253 212 240 126 175 184 159 158 163 223 192 180 180 176 175 183 185 180 171 181 183 197 187 188 212 215 207 181 225 279 255 137 155 163 172 182 166 154 176 172 156 170 196
233 234 222 233 251 245 257 221 281 317 193 197 171 172 107 117 26 199 179 172 174 176 186 183 174 181 184 190 190 188 196 210 229 218 200 234 226 148 155 165 184 178 175 172 177 169 166 180 202
222 225 236 248 236 235 248 246 198 99 322 207 200 128 94 50 91 300 170 168 171 173 183 186 183 178 184 191 189 189 192 200 213 232 217 209 250 170 166 182 203 178 184 183 181 249 158 193 210
231 223 229 228 256 235 258 267 142 167 201 155 137 113 93 64 12 58 320 158 167 174 180 186 191 177 185 187 193 191 192 196 204 213 223 189 211 203 190 196 207 207 193 195 197 202 235 213 219